TimePST,TemperatureF,Dew PointF,Humidity,Sea Level PressureIn,VisibilityMPH,Wind Direction,Wind SpeedMPH,Gust SpeedMPH,PrecipitationIn,Events,Conditions,WindDirDegrees,DateUTC
12:53 AM,24.1,19.9,84,30.16,6.0,Calm,Calm,-,N/A,,Clear,0,2012-12-25 08:53:00
1:53 AM,23.0,19.9,88,30.14,8.0,West,3.5,-,N/A,,Clear,260,2012-12-25 09:53:00
2:53 AM,25.0,21.0,85,30.12,10.0,West,4.6,-,N/A,,Clear,280,2012-12-25 10:53:00
3:53 AM,27.0,23.0,85,30.10,10.0,WNW,3.5,-,N/A,,Scattered Clouds,300,2012-12-25 11:53:00
4:53 AM,27.0,23.0,85,30.08,10.0,Calm,Calm,-,N/A,,Overcast,0,2012-12-25 12:53:00
5:53 AM,27.0,24.1,89,30.05,10.0,West,3.5,-,N/A,,Overcast,270,2012-12-25 13:53:00
6:53 AM,28.0,24.1,85,30.04,8.0,WNW,3.5,-,N/A,,Overcast,290,2012-12-25 14:53:00
7:18 AM,28.4,24.8,86,29.98,2.0,Calm,Calm,-,0.00,Snow,Light Snow,0,2012-12-25 15:18:00
7:21 AM,28.4,24.8,86,29.98,1.8,Calm,Calm,-,0.00,Snow,Light Snow,0,2012-12-25 15:21:00
7:53 AM,28.9,26.1,89,30.01,1.5,Calm,Calm,-,0.01,Snow,Light Snow,0,2012-12-25 15:53:00
8:31 AM,28.4,26.6,93,29.97,0.8,Calm,Calm,-,0.00,Snow,Light Snow,0,2012-12-25 16:31:00
8:53 AM,30.0,27.0,88,30.00,0.5,West,3.5,-,0.02,Fog-Snow,Snow,280,2012-12-25 16:53:00
9:07 AM,30.2,26.6,86,29.96,0.2,West,3.5,-,0.02,Fog-Snow,Snow,270,2012-12-25 17:07:00
9:16 AM,30.2,28.4,93,29.95,0.5,Calm,Calm,-,0.02,Fog-Snow,Snow,0,2012-12-25 17:16:00
9:40 AM,30.2,28.4,93,29.94,0.2,Calm,Calm,-,0.05,Fog-Snow,Snow,0,2012-12-25 17:40:00
9:53 AM,30.9,28.0,89,29.98,0.5,Calm,Calm,-,0.07,Fog-Snow,Light Snow,0,2012-12-25 17:53:00
10:49 AM,32.0,28.4,87,29.92,0.5,West,4.6,-,0.03,Snow,Light Snow,280,2012-12-25 18:49:00
10:53 AM,32.0,28.9,88,29.95,0.5,West,4.6,-,0.03,Snow,Light Snow,280,2012-12-25 18:53:00
11:12 AM,32.0,28.4,87,29.90,0.5,West,4.6,-,0.01,Snow,Light Snow,280,2012-12-25 19:12:00
11:22 AM,32.0,30.2,93,29.90,0.5,West,4.6,-,0.01,Snow,Light Snow,270,2012-12-25 19:22:00
11:53 AM,32.0,30.0,92,29.92,1.0,Calm,Calm,-,0.02,Snow,Light Snow,0,2012-12-25 19:53:00
12:04 PM,33.8,30.2,87,29.87,1.0,Calm,Calm,-,0.01,Snow,Light Snow,0,2012-12-25 20:04:00
12:26 PM,33.8,30.2,87,29.86,0.8,Calm,Calm,-,0.01,Snow,Light Snow,0,2012-12-25 20:26:00
12:46 PM,33.8,30.2,87,29.86,0.5,Calm,Calm,-,0.02,Fog-Snow,Snow,0,2012-12-25 20:46:00
12:53 PM,33.1,30.9,92,29.89,0.5,Calm,Calm,-,0.03,Fog-Snow,Snow,0,2012-12-25 20:53:00
1:53 PM,34.0,30.0,85,29.88,0.8,Calm,Calm,-,0.03,Snow,Light Snow,0,2012-12-25 21:53:00
1:59 PM,33.8,30.2,87,29.84,1.0,Calm,Calm,-,0.01,Snow,Light Snow,0,2012-12-25 21:59:00
2:35 PM,33.8,30.2,87,29.84,1.0,Calm,Calm,-,0.01,Snow,Light Snow,0,2012-12-25 22:35:00
2:53 PM,33.1,30.0,89,29.88,1.0,Calm,Calm,-,0.02,Snow,Light Snow,0,2012-12-25 22:53:00
2:56 PM,33.8,30.2,87,29.84,0.8,Calm,Calm,-,0.00,Snow,Light Snow,0,2012-12-25 22:56:00
3:16 PM,33.8,30.2,87,29.83,0.8,Calm,Calm,-,N/A,Snow,Light Snow,0,2012-12-25 23:16:00
3:25 PM,33.8,30.2,87,29.83,0.8,Calm,Calm,-,0.01,Snow,Light Snow,0,2012-12-25 23:25:00
3:40 PM,33.8,30.2,87,29.83,0.5,Calm,Calm,-,0.01,Fog-Snow,Light Snow,0,2012-12-25 23:40:00
3:53 PM,33.1,30.0,89,29.88,0.5,Calm,Calm,-,0.02,Fog-Snow,Light Snow,0,2012-12-25 23:53:00
4:04 PM,33.8,30.2,87,29.83,1.0,Calm,Calm,-,0.00,Snow,Light Snow,0,2012-12-26 00:04:00
4:32 PM,33.8,30.2,87,29.83,3.0,Calm,Calm,-,0.00,Rain,Light Rain,0,2012-12-26 00:32:00
4:53 PM,33.1,30.9,92,29.87,5.0,Calm,Calm,-,0.00,,Overcast,0,2012-12-26 00:53:00
5:53 PM,33.1,30.9,92,29.86,3.0,Calm,Calm,-,0.00,Snow,Light Snow,0,2012-12-26 01:53:00
6:24 PM,33.8,30.2,87,29.83,2.5,Calm,Calm,-,0.01,Snow,Light Snow,0,2012-12-26 02:24:00
6:53 PM,32.0,30.0,92,29.87,4.0,West,3.5,-,0.01,,Overcast,260,2012-12-26 02:53:00
7:53 PM,33.1,28.9,85,29.86,10.0,WSW,4.6,-,0.00,,Overcast,250,2012-12-26 03:53:00
8:21 PM,33.8,28.4,81,29.81,10.0,West,5.8,-,N/A,,Mostly Cloudy,280,2012-12-26 04:21:00
8:53 PM,32.0,28.9,88,29.86,10.0,WSW,6.9,-,N/A,,Overcast,250,2012-12-26 04:53:00
9:53 PM,30.9,28.0,89,29.85,10.0,WSW,4.6,-,N/A,,Overcast,250,2012-12-26 05:53:00
10:18 PM,33.8,28.4,81,29.81,10.0,West,5.8,-,N/A,,Overcast,270,2012-12-26 06:18:00
10:53 PM,32.0,28.0,85,29.85,10.0,West,5.8,-,N/A,,Overcast,260,2012-12-26 06:53:00
11:53 PM,32.0,28.9,88,29.85,4.0,West,4.6,-,0.00,Snow,Light Snow,260,2012-12-26 07:53:00